{"data":{"norad_id":64683,"intl_designator":"2025-139V","name":"STARLINK-34550","alt_names":[],"object_type":"PAYLOAD","status":"ACTIVE","operator":null,"country":"US","launch_date":"2025-06-28","launch_site_code":"AFETR","launch_vehicle":null,"mission":null,"orbit_class":"UNKNOWN","rcs_meters":null,"size_class":null,"mass_kg":null,"dimensions":null,"purposes":["comms"],"wikipedia_slug":null,"has_3d_model":false,"image_url":null,"decayed_at":null,"tle_current":{"epoch":"2026-05-25T05:14:52.591200Z","epoch_age_seconds":52811,"freshness":"FRESH","line1":"1 64683U 25139V   26145.21866425  .00014150  00000+0  42907-3 0  9994","line2":"2 64683  53.1603 130.6742 0001374  89.6621 270.4539 15.34405339 52012","mean_motion":15.34405339,"eccentricity":0.0001374,"inclination_deg":53.1603,"raan_deg":130.6742,"arg_perigee_deg":89.6621,"mean_anomaly_deg":270.4539,"bstar":0.00042907,"rev_number":5201,"period_min":93.847431535821,"perigee_km":461.74744235131,"apogee_km":463.62730088864,"semimajor_km":6840.82437162,"source":"CELESTRAK","updated_at":"2026-05-25T13:38:20.507253Z"}}}